Карточка аэропорта UIUU

Внимание!
Информация на этой странице в стадии наполнения.
Если вы не увидели какой-то информации, или заметили неточность - пожалуйста сообщите нам!
Спасибо!
Команда RU-STAFF
Название аэропортаМухино
Название аэропорта (англ.)Mukhino
Превышение1699 ft. (517.9 m.)
Координаты51°48.45', 107°26.4'
Высота перехода1800m
Эшелон переходаFL090
Коды ответчика2701-2717
Зона ОрВДИркутск РПИ (UIII)
Данные METARUIUU 291230Z 35002MPS 9000 1700NW R08/P2000U FU NSC M16/M21 Q1027 R08/810555 NOSIG RMK QFE724/0966
Проноз погоды (TAF)UIUU 291100Z 2912/0112 24003G08MPS 2900 FU SCT040 TEMPO 2912/0103 1900 FU BECMG 0103/0105 9999 NSW
NOTAMshow/hide NOTAM
AWOS   TABLE

Информация о ВПП

ВПП Длина ВПП (м.) Покрытие Курс ВПП Частота ILS
083400Цементобетон83111.3
263400Цементобетон263110.3

Диспетчерские позиции

Позывной Наименование органа УВД Частота
UIUU_TWRУлан-Удэ-Вышка118.200
UIUU_APPУлан-Удэ-Подход129.300



Спутниковое изображение